Погода в Туринске

Погода в Туринске : погода сейчас, прогноз погоды и архив. Всё, что Вы хотите узнать о погоде в Туринске!

Хотите узнать прогноз погоды в Туринске? Тогда Вам сюда: Погода в Туринске

Поиск расширенной информации на нашем сайте:

Другие новости

Новости СМИ2

Главная страница сайта

Новости сайта

03.07.2017

Напоминаем, что на нашем специализированном сайте Метеоцентр.Азия вы можете получить высокодетализированные автоматические прогнозы погоды по пунктам России, СНГ и мира в авиационном формате (включающие направление и скорость ветра, видимость, явления погоды, количество и форму облачности, нижнюю и верхнюю границу облачности).

Рекомендуем: офисные блоки на выгодных условиях аренда офиса в бизнес парке Московский шелк У метро Спортивная

Погода в Туринске - сегодня

Время (UTC), дата Ветер
(°,м/с) 
Видим.   Явления Облачность Т
(°С)
Тd
(°С)
f(%) Тe
(°С)
Pmin
(гПа)
dP
(гПа)
Po
(мм)
O2
(г/м3)
Тmin Tmax R s Состояние
почвы
06 10.01.18 260 (З) 1000 м  ливневой снег  10/10 300 м кучево-дожд. 
[Cb calv]
-7.9 -9.8 86 -9  1001.3  0.5  741  308           
00 11.01.18 320 (СЗ) 1000 м    ясно 
-20.6 -22.7 83 -21  1005.5  0.3  744  326           
06 11.01.18 320 (СЗ) 20000 м    6/0 верхняя 
[Ci fib]
-21.3 -23.8 80 -22  1006.7  1.1  745  327           
12 11.01.18 310 (СЗ) 1000 м  позёмок  ясно 
-22.9 -25.6 79 -26  1010.7  2.5  747  330           
18 11.01.18 310 (СЗ) 1000 м    ясно 
-24.1 -26.8 78 -27  1014.2  1.5  750  333           
00 12.01.18 300 (СЗ) 1000 м    ясно 
-22.4 -24.8 81 -23  1016.6  1.2  752  332           
06 12.01.18 320 (СЗ) 4000 м  слаб. снег  10/0 средняя 
[As trans]
-17.4 -19.6 83 -20  1019.4  2.1  754  326           
18 12.01.18 320 (СЗ) 1000 м    ясно 
-22.4 -24.8 81 -25  1027.4  1.4  760  335           
00 13.01.18 310 (СЗ) 1000 м    ясно 
-23.4 -26 79 -24  1028.5  0.1  761  337           
06 13.01.18 260 (З) 20000 м    ясно 
-23.4 -26 79 -24  1026.6  -1  759  336           
12 13.01.18 260 (З) 1000 м    3/0 верхняя 
[Ci fib]
-21.1 -23.7 80 -21  1025  -0.7  758  333           
18 13.01.18 280 (З) 1000 м    ясно 
-19.8 -22.1 82 -23  1023.1  -0.6  757  330           
00 14.01.18 280 (З) 1000 м    8/0 средняя 
[Ac trans]
-17.6 -20 81 -20  1022.4  756  327           
06 14.01.18 300 (СЗ) 4000 м  слаб. снег  10/0 средняя 
[Ac As]
-18.3 -20.9 80 -21  1024  1.4  758  329           
18 14.01.18 280 (З) 1000 м    ясно 
-17.8 -19.9 84 -18  1025.8  -0.6  759  329           
00 15.01.18 280 (З) 1000 м    10/6 600 м средняя 
[Sc|Ac trans]
-15.1 -17.1 85 -15  1024.3  -0.5  758  325           
06 15.01.18 310 (СЗ) 20000 м    10/0 средняя, верхняя 
[As op|Ci fib]
-10.3 -12.3 85 -12  1024.1  0.2  758  319           
12 15.01.18 300 (СЗ) 1000 м    4/3 600 м верхняя 
[Sc|Ci fib]
-9.1 -11.1 85 -9  1025  0.6  759  317           
18 15.01.18 290 (З) 1000 м    ясно 
-12.2 -13.3 92 -12  1024.8  758  321           
00 16.01.18 290 (З) 1000 м    8/0 верхняя 
[Ci fib]
-11.1 -12.4 90 -11  1024.2  758  320           
06 16.01.18 280 (З) 20000 м    ясно 
-12 -13.4 89 -12  1024.2  0.5  758  321  -14         
12 16.01.18 300 (СЗ) 1000 м    ясно 
-11.6 -13.3 87 -11  1024.6  758  320           
18 16.01.18 310 (СЗ) 1000 м  дымка  ясно 
-12.6 -13.8 91 -13  1024.8  0.6  758  322           
00 17.01.18 310 (СЗ) 1000 м    ясно 
-13.7 -15 90 -14  1025.8  0.6  759  323           
06 17.01.18 тихо ()   20000 м    ясно 
-17 -18.7 87 -17  1026.8  760  328  -18.4         
Время (UTC), дата Ветер
(°,м/с) 
Видим.   Явления Облачность Т
(°С)
Тd
(°С)
f(%) Тe
(°С)
Pmin
(гПа)
dP
(гПа)
Po
(мм)
O2
(г/м3)
Тmin Tmax R s Состояние
почвы

Для получения пояснительной информации подведите курсор к названию столбца.

ПОГОДА в Туринске - архив

Всё, что Вы хотите узнать о погоде в Туринске - удобно и подробно!

Выберите нужную дату (начиная с 1 января 2015* года) и нажмите кнопку "Найти".
Будут отображены архивные сводки погоды по пункту Туринск, начиная с указанной даты.


Отображать данные в формате CSV (для использования в таблицах Excel)


Внимание! Наш архив погоды предназначен исключительно для личного некоммерческого использования в познавательных целях. Если Вам необходимы официальные справки о состоянии погоды (для производственных, юридических, коммерческих и т.п. целей), обращайтесь в органы Росгидромета.

*Примечание: данная дата относится к архиву по метеостанциям СССР (Россия, СНГ, Балтия).
Архив по метеостанциям Зарубежной Европы и Азии (кроме Китая) хранится 10 дней, по другим регионам земного шара (Китай, Африка, Америка, Австралия, Океания) - 1 день.

Туринск - район местоположения метеостанции


Название, широта, долгота, высота метеостанции:
Туринск 58.1°ш. 63.7°д. 103 м над ур. моря [Российская Федерация]

Дополнительная информация

В oтличие oт бoльшинства пoгoдных сайтoв мы публикуем пoдрoбную метеoинфoрмацию в детальнoм прoфессиoнальнoм фoрмате.

Характеристики температуры и влажнoсти вoздуха измеряются на высoте 2 м в тени вдали oт зданий и деревьев.
Скoрoсть ветра измеряется на высoте 10 м (на урoвне рoста челoвека скoрoсть ветра ниже в 1.5-2 раза). Если метеoстанция нахoдится в гoрoде или в лесу, тo скoрoсть ветра занижена на 2-4 м/с пo сравнению с oткрытым местoм. Скoрoсть ветра над акватoриями крупных рек и oзёр, а также на вершинах хoлмoв на 2-5 м/с выше, чем в oбычных услoвиях.
Атмoсфернoе давление в разных тoчках местнoсти мoжет значительнo oтличаться oт давления на метеoстанции, в зависимoсти oт услoвий рельефа (при пoдъёме на 10 м давление пoнижается примернo на 1 мм рт.ст.).